Location: Irma
(52.9170°N, 111.2330°W)
Time: 00:19:48
(UTC-07:00)

Amateur Radio Satellites - All Passes

Search period start: 28 November 2014 23:49
Search period end: 29 November 2014 23:49
Location: Irma, 52.9170°N, 111.2330°W

Satellite Date Start Highest point End Downlink Frequencies (MHz)
Time Altitude Azimuth
POPSAT HIP 1 28 Nov 23:53:08 23:57:22 74° 287° (WNW) 00:01:35 437.405
CUBEBUG 1 28 Nov 23:54:45 23:58:05 20° 269° (W) 00:01:24 437.445
SWISSCUBE 28 Nov 23:57:46 00:02:11 37° 64° (ENE) 00:06:38 437.505
TIGRISAT 29 Nov 00:03:47 00:08:01 46° 292° (WNW) 00:12:19 435.000
KKS-1 29 Nov 00:04:50 00:06:34 12° 51° (NE) 00:08:19 437.445
RS-15 29 Nov 00:07:58 00:19:08 90° 228° (SW) 00:30:47 29.354- 29.394
AIST 2 29 Nov 00:12:03 00:15:00 18° 352° (N) 00:17:58 435.215
DANDE 29 Nov 00:17:48 00:22:02 47° 261° (W) 00:27:42 436.750
UNISAT 6 29 Nov 00:19:28 00:23:29 34° 295° (WNW) 00:27:35 437.425
AUBIESAT-1 29 Nov 00:23:47 00:28:07 88° 249° (WSW) 00:32:51 437.475
BEESAT 29 Nov 00:27:44 00:32:27 60° 69° (ENE) 00:37:12 436.000
POLYITAN 1 29 Nov 00:29:02 00:32:54 35° 295° (WNW) 00:36:46 437.675
QB50P2 29 Nov 00:29:43 00:33:35 35° 295° (WNW) 00:37:26 145.880/145.840
M-CUBED/EXP-1 PRIME 29 Nov 00:31:28 00:35:46 71° 251° (WSW) 00:40:28 437.505
PCSat 29 Nov 00:31:41 00:35:31 19° 8° (N) 00:39:21 145.827
DUCHIFAT 1 29 Nov 00:33:36 00:37:23 33° 295° (WNW) 00:41:10 145.980
YUBILEINY 29 Nov 00:36:39 00:42:00 18° 70° (ENE) 00:47:20 435.215
BEESAT 3 29 Nov 00:44:06 00:46:54 17° 8° (N) 00:49:42 437.485
TISAT 1 29 Nov 00:45:13 00:48:25 21° 269° (W) 00:51:39 437.305
ANTELSAT 29 Nov 00:49:08 00:52:28 21° 301° (WNW) 00:55:51 437.575/2403.000
STARS 29 Nov 00:51:49 00:55:02 20° 58° (ENE) 00:58:16 437.465
NANOSAT C BR1 29 Nov 00:53:55 00:57:16 23° 300° (WNW) 01:00:35 145.865
BUGSAT 1 29 Nov 00:57:34 01:00:51 24° 299° (WNW) 01:04:05 437.445
BEESAT 2 29 Nov 01:02:25 01:05:21 18° 12° (NNE) 01:08:17 435.950
QB50P1 29 Nov 01:04:32 01:07:34 19° 302° (WNW) 01:10:34 145.935-145.965
SPROUT 29 Nov 01:06:13 01:08:53 16° 272° (W) 01:11:33 437.525
Oscar 19 29 Nov 01:20:00 01:24:32 30° 94° (E) 01:29:03 437.125/150
CUSAT 1 29 Nov 01:21:53 01:24:34 15° 272° (W) 01:27:37 437.405
ISS 29 Nov 01:24:57 01:28:14 69° 175° (S) 01:31:31 145.825
ITUPSAT 1 29 Nov 01:25:42 01:30:22 48° 261° (W) 01:35:04 437.325
POPSAT HIP 1 29 Nov 01:30:44 01:32:35 13° 307° (NW) 01:34:26 437.405
Gurwin Techsat 1B 29 Nov 01:34:47 01:36:23 11° 82° (E) 01:37:59 435.225
SWISSCUBE 29 Nov 01:35:37 01:40:05 37° 263° (W) 01:44:34 437.505
KKS-1 29 Nov 01:38:00 01:42:24 64° 71° (ENE) 01:46:50 437.445
AIST 2 29 Nov 01:51:49 01:55:05 20° 16° (NNE) 01:58:20 435.215
AUBIESAT-1 29 Nov 02:01:33 02:03:54 14° 269° (W) 02:06:20 437.475
BEESAT 29 Nov 02:06:55 02:10:42 23° 269° (W) 02:14:30 436.000
M-CUBED/EXP-1 PRIME 29 Nov 02:10:29 02:11:46 11° 272° (W) 02:13:05 437.505
PCSat 29 Nov 02:15:34 02:20:32 34° 33° (NNE) 02:25:29 145.827
ITAMSAT 1 29 Nov 02:20:24 02:25:16 39° 97° (E) 02:30:06 435.822/435.867
RS-15 29 Nov 02:20:51 02:30:19 34° 253° (WSW) 02:40:09 29.354- 29.394
BEESAT 3 29 Nov 02:22:26 02:26:17 33° 32° (NNE) 02:30:06 437.485
STARS 29 Nov 02:26:46 02:31:08 66° 257° (WSW) 02:35:32 437.465
YUBILEINY 29 Nov 02:28:27 02:37:08 68° 94° (E) 02:45:48 435.215
BEESAT 2 29 Nov 02:40:42 02:44:42 39° 35° (NE) 02:48:40 435.950
HORYU 2 29 Nov 02:43:00 02:46:01 17° 89° (E) 02:49:02 437.375
Oscar 19 29 Nov 02:59:08 03:04:07 50° 293° (WNW) 03:09:07 437.125/150
ISS 29 Nov 03:01:31 03:04:45 55° 194° (SSW) 03:07:59 145.825
AO-7 29 Nov 03:06:39 03:12:04 18° 84° (E) 03:17:28 29.400- 29.500
MOZHAYETS 4 29 Nov 03:07:39 03:11:14 23° 59° (ENE) 03:14:51
Gurwin Techsat 1B 29 Nov 03:12:09 03:17:27 64° 102° (ESE) 03:22:43 435.225
KKS-1 29 Nov 03:16:20 03:19:30 19° 270° (W) 03:22:41 437.445
AIST 2 29 Nov 03:30:23 03:34:38 51° 39° (NE) 03:38:50 435.215
SO-50 29 Nov 03:36:06 03:40:29 48° 125° (SE) 03:45:02 436.795
PCSat 29 Nov 03:58:58 04:04:24 71° 236° (SW) 04:09:47 145.827
ITAMSAT 1 29 Nov 04:00:00 04:04:48 39° 297° (WNW) 04:09:35 435.822/435.867
BEESAT 3 29 Nov 04:00:37 04:04:46 57° 233° (SW) 04:08:51 437.485
HORYU 2 29 Nov 04:18:42 04:23:12 72° 288° (WNW) 04:27:41 437.375
BEESAT 2 29 Nov 04:19:03 04:23:05 44° 236° (SW) 04:27:04 435.950
YUBILEINY 29 Nov 04:26:36 04:34:37 38° 298° (WNW) 04:42:39 435.215
ISS 29 Nov 04:38:30 04:40:57 20° 214° (SSW) 04:43:24 145.825
O/OREOS (USA 219) 29 Nov 04:39:16 04:41:37 14° 99° (E) 04:43:58 437.305
Oscar 19 29 Nov 04:40:33 04:42:23 12° 314° (NW) 04:44:13 437.125/150
PRISM 29 Nov 04:40:39 04:44:27 33° 64° (ENE) 04:48:18 437.425
MOZHAYETS 4 29 Nov 04:43:32 04:48:06 62° 259° (WSW) 04:52:44
Gurwin Techsat 1B 29 Nov 04:52:41 04:57:05 27° 302° (WNW) 05:01:28 435.225
AO-7 29 Nov 04:58:06 05:06:29 69° 106° (ESE) 05:14:50 29.400- 29.500
CUBESAT XI-V 29 Nov 04:58:40 05:02:27 24° 60° (ENE) 05:06:14 437.345
AIST 1 29 Nov 05:05:15 05:08:11 17° 61° (ENE) 05:11:06
JAS-2 29 Nov 05:07:34 05:14:16 40° 93° (E) 05:20:12 435.910
AIST 2 29 Nov 05:09:18 05:13:08 32° 240° (WSW) 05:16:55 435.215
STRAND 1 29 Nov 05:14:14 05:18:51 35° 62° (ENE) 05:23:28 437.568
SO-50 29 Nov 05:16:46 05:21:10 42° 327° (NNW) 05:25:43 436.795
Cubesat XI-IV 29 Nov 05:27:30 05:30:35 15° 86° (E) 05:33:39 437.490
PCSat 29 Nov 05:44:03 05:46:53 14° 256° (WSW) 05:49:42 145.827
HORYU 2 29 Nov 05:56:57 05:59:08 14° 308° (NW) 06:01:19 437.375
CUTE-I 29 Nov 06:06:52 06:11:32 30° 94° (E) 06:16:10 437.470
O/OREOS (USA 219) 29 Nov 06:15:52 06:20:21 89° 299° (WNW) 06:24:52 437.305
PRISM 29 Nov 06:16:10 06:20:01 34° 263° (W) 06:23:54 437.425
GONETS M04 29 Nov 06:26:42 06:32:34 20° 72° (ENE) 06:38:27
YUBILEINY 29 Nov 06:31:23 06:34:49 13° 328° (NNW) 06:38:15 435.215
CUBESAT XI-V 29 Nov 06:34:55 06:39:35 59° 259° (W) 06:44:16 437.345
AIST 1 29 Nov 06:42:01 06:46:25 72° 262° (W) 06:50:44
AO-7 29 Nov 06:51:19 06:58:54 41° 309° (NW) 07:06:29 29.400- 29.500
JAS-2 29 Nov 06:52:35 06:59:34 53° 297° (WNW) 07:05:44 435.910
STRAND 1 29 Nov 06:53:02 06:57:57 45° 261° (W) 07:02:54 437.568
SO-50 29 Nov 06:59:14 07:02:52 21° 351° (N) 07:06:35 436.795
Cubesat XI-IV 29 Nov 07:06:10 07:11:32 83° 105° (ESE) 07:16:52 437.490
HO-68 29 Nov 07:26:40 07:27:49 10° 77° (ENE) 07:28:57 435.675
CUTE-I 29 Nov 07:46:43 07:51:53 52° 294° (WNW) 07:57:01 437.470
O/OREOS (USA 219) 29 Nov 07:57:10 08:00:25 19° 321° (NW) 08:03:42 437.305
BRITE-PL 29 Nov 08:13:03 08:14:48 12° 86° (E) 08:16:33 437.365/2234.400
UNISAT 6 29 Nov 08:14:40 08:16:04 11° 51° (NE) 08:17:29 437.425
GONETS M04 29 Nov 08:19:05 08:27:52 74° 96° (E) 08:36:42
COMPASS 1 29 Nov 08:23:45 08:25:42 13° 86° (E) 08:27:38 437.405
DUCHIFAT 1 29 Nov 08:25:04 08:25:25 10° 50° (NE) 08:25:46 145.980
CANX-2 29 Nov 08:28:46 08:31:59 20° 90° (E) 08:35:11 2200.000
JAS-2 29 Nov 08:38:45 08:42:59 17° 320° (NW) 08:47:00 435.910
SO-50 29 Nov 08:41:02 08:44:55 24° 15° (NNE) 08:48:50 436.795
ANTELSAT 29 Nov 08:41:59 08:44:57 19° 57° (ENE) 08:47:56 437.575/2403.000
NANOSAT C BR1 29 Nov 08:42:56 08:45:13 14° 54° (NE) 08:47:31 145.865
AO-7 29 Nov 08:44:48 08:49:34 17° 334° (NNW) 08:54:20 29.400- 29.500
BUGSAT 1 29 Nov 08:45:03 08:46:57 13° 54° (NE) 08:48:52 437.445
Cubesat XI-IV 29 Nov 08:47:06 08:51:04 22° 306° (NW) 08:55:01 437.490
QB50P1 29 Nov 08:52:47 08:55:33 17° 57° (ENE) 08:58:19 145.935-145.965
CUTE 1.7 + AOD 2 29 Nov 09:02:26 09:06:26 36° 97° (E) 09:10:25 437.475
GOMX 1 29 Nov 09:02:37 09:06:10 27° 94° (E) 09:09:47 467.674
HO-68 29 Nov 09:10:26 09:17:24 50° 100° (E) 09:24:18 435.675
POPSAT HIP 1 29 Nov 09:17:09 09:20:41 26° 62° (ENE) 09:24:13 437.405
ZACube-1 29 Nov 09:20:44 09:21:43 11° 85° (E) 09:22:43 437.345
DELFI C3 29 Nov 09:26:51 09:30:01 21° 91° (E) 09:33:11 145.870
CUTE-I 29 Nov 09:28:39 09:30:52 13° 315° (NW) 09:33:05 437.470
SEEDS 29 Nov 09:30:35 09:34:50 59° 101° (E) 09:39:04 437.485
TIGRISAT 29 Nov 09:32:15 09:36:18 46° 68° (ENE) 09:40:25 435.000
AAUSAT CUBESAT 2 29 Nov 09:39:52 09:44:03 56° 101° (E) 09:48:14 437.432
DOVE 4 29 Nov 09:41:04 09:45:07 46° 99° (E) 09:49:16 437.250
UKube-1 29 Nov 09:43:39 09:47:27 29° 95° (E) 09:51:13 .
UNISAT 6 29 Nov 09:47:51 09:52:04 65° 71° (ENE) 09:56:21 437.425
CINEMA 3 29 Nov 09:49:31 09:53:28 37° 97° (E) 09:57:30 145.822/145.860
BRITE-PL 29 Nov 09:49:50 09:54:00 85° 285° (WNW) 09:58:13 437.365/2234.400
Oscar 11 29 Nov 09:51:54 09:56:02 41° 98° (E) 10:00:10 145.826/435.025
POLYITAN 1 29 Nov 09:52:18 09:56:25 52° 69° (ENE) 10:00:34 437.675
QB50P2 29 Nov 09:52:46 09:56:54 53° 69° (ENE) 10:01:03 145.880/145.840
FUNcube-1 29 Nov 09:52:53 09:56:10 21° 92° (E) 09:59:29 145.935
DUCHIFAT 1 29 Nov 09:56:16 10:00:26 56° 70° (ENE) 10:04:35 145.980
COMPASS 1 29 Nov 09:57:48 10:02:05 89° 286° (WNW) 10:06:21 437.405
AISAT 29 Nov 10:02:09 10:05:10 18° 89° (E) 10:08:09 437.250
CANX-2 29 Nov 10:04:03 10:08:17 57° 289° (WNW) 10:12:30 2200.000
HUMSAT D 29 Nov 10:10:14 10:13:21 20° 91° (E) 10:16:28 437.325/437.525
NANOSAT C BR1 29 Nov 10:16:15 10:20:30 86° 74° (ENE) 10:24:46 145.865
ANTELSAT 29 Nov 10:17:05 10:21:20 69° 257° (WSW) 10:25:39 437.575/2403.000
BUGSAT 1 29 Nov 10:17:34 10:21:47 76° 73° (ENE) 10:26:00 437.445
GONETS M04 29 Nov 10:17:39 10:25:33 35° 300° (WNW) 10:33:32
SO-50 29 Nov 10:21:40 10:26:25 55° 38° (NE) 10:31:14 436.795
DX 1 29 Nov 10:22:46 10:27:07 66° 103° (ESE) 10:31:26 434.975-435.025
QB50P1 29 Nov 10:26:43 10:30:58 77° 256° (WSW) 10:35:14 145.935-145.965
UWE-3 29 Nov 10:28:00 10:32:09 50° 100° (E) 10:36:22 435.000/436.395/437.385
YUBILEINY 29 Nov 10:34:56 10:39:47 16° 39° (NE) 10:44:35 435.215
CUBEBUG 2 29 Nov 10:35:38 10:39:53 67° 102° (ESE) 10:44:13 437.445
AO-7 29 Nov 10:36:39 10:39:03 12° 2° (N) 10:41:28 29.400- 29.500
CUTE 1.7 + AOD 2 29 Nov 10:38:31 10:42:20 31° 296° (WNW) 10:46:08 437.475
GOMX 1 29 Nov 10:40:36 10:44:29 39° 293° (WNW) 10:48:26 467.674
POPSAT HIP 1 29 Nov 10:52:22 10:56:26 44° 261° (W) 11:00:31 437.405
ZACube-1 29 Nov 10:54:35 10:58:51 78° 104° (ESE) 11:03:11 437.345
HO-68 29 Nov 10:58:21 11:05:08 47° 301° (WNW) 11:11:53 435.675
DELFI C3 29 Nov 11:01:35 11:05:37 51° 290° (WNW) 11:09:38 145.870
Oscar 19 29 Nov 11:06:11 11:09:20 17° 51° (NE) 11:12:29 437.125/150
SEEDS 29 Nov 11:07:07 11:10:20 21° 300° (WNW) 11:13:33 437.485
50 SAT 29 Nov 11:08:17 11:12:19 57° 101° (E) 11:16:21 437.505
VELOX 1 29 Nov 11:09:09 11:13:35 67° 103° (ESE) 11:17:58 145.980
TIGRISAT 29 Nov 11:09:51 11:13:19 24° 267° (W) 11:16:49 435.000
AAUSAT CUBESAT 2 29 Nov 11:16:12 11:19:26 22° 300° (WNW) 11:22:40 437.432
DOVE 4 29 Nov 11:19:22 11:22:45 24° 298° (WNW) 11:26:10 437.250
UKube-1 29 Nov 11:19:40 11:23:45 40° 294° (WNW) 11:27:48 .
ESTCUBE 1 29 Nov 11:21:21 11:25:39 39° 97° (E) 11:29:54 437.505/2401.250
UNISAT 6 29 Nov 11:26:28 11:29:20 18° 271° (W) 11:32:15 437.425
CINEMA 3 29 Nov 11:26:58 11:30:39 30° 296° (WNW) 11:34:26 145.822/145.860
Oscar 11 29 Nov 11:28:20 11:32:07 29° 297° (WNW) 11:35:53 145.826/435.025
FUNcube-1 29 Nov 11:28:42 11:32:50 53° 290° (WNW) 11:37:02 145.935
POLYITAN 1 29 Nov 11:29:26 11:32:41 21° 268° (W) 11:35:58 437.675
QB50P2 29 Nov 11:29:54 11:33:09 21° 268° (W) 11:36:25 145.880/145.840
BRITE-PL 29 Nov 11:29:57 11:31:56 13° 306° (NW) 11:33:55 437.365/2234.400
DUCHIFAT 1 29 Nov 11:33:31 11:36:39 20° 269° (W) 11:39:48 145.980
COMPASS 1 29 Nov 11:34:50 11:37:14 15° 305° (NW) 11:39:37 437.405
CUBEBUG 1 29 Nov 11:36:27 11:40:45 51° 100° (E) 11:44:58 437.445
AISAT 29 Nov 11:37:52 11:42:17 68° 289° (WNW) 11:46:40 437.250
CANX-2 29 Nov 11:42:38 11:43:22 10° 309° (NW) 11:44:05 2200.000
HUMSAT D 29 Nov 11:45:24 11:49:30 55° 290° (WNW) 11:53:37 437.325/437.525
NANOSAT C BR1 29 Nov 11:54:57 11:57:01 13° 273° (W) 11:59:05 145.865
BUGSAT 1 29 Nov 11:55:23 11:57:49 15° 272° (W) 12:00:16 437.445
DX 1 29 Nov 11:59:47 12:02:58 20° 303° (WNW) 12:06:08 434.975-435.025
SO-50 29 Nov 12:02:27 12:06:53 36° 239° (WSW) 12:11:20 436.795
UWE-3 29 Nov 12:05:05 12:08:29 24° 299° (WNW) 12:11:56 435.000/436.395/437.385
QB50P1 29 Nov 12:06:47 12:07:39 11° 275° (W) 12:08:30 145.935-145.965
ITAMSAT 1 29 Nov 12:06:48 12:10:43 22° 55° (NE) 12:14:39 435.822/435.867
CUBEBUG 2 29 Nov 12:13:14 12:16:13 19° 301° (WNW) 12:19:15 437.445
GONETS M04 29 Nov 12:22:58 12:26:01 12° 330° (NNW) 12:29:04
TISAT 1 29 Nov 12:23:03 12:27:06 43° 99° (E) 12:31:06 437.305
AO-7 29 Nov 12:23:28 12:28:38 19° 29° (NNE) 12:33:50 29.400- 29.500
YUBILEINY 29 Nov 12:30:59 12:39:23 48° 67° (ENE) 12:47:42 435.215
ZACube-1 29 Nov 12:32:02 12:34:46 17° 303° (WNW) 12:37:31 437.345
Oscar 19 29 Nov 12:42:48 12:47:54 76° 71° (ENE) 12:53:04 437.125/150
50 SAT 29 Nov 12:44:19 12:47:18 20° 300° (WNW) 12:50:18 437.505
SPROUT 29 Nov 12:44:54 12:49:10 63° 102° (ESE) 12:53:25 437.525
VELOX 1 29 Nov 12:46:31 12:49:46 20° 303° (WNW) 12:53:01 145.980
HO-68 29 Nov 12:47:16 12:51:14 16° 325° (NW) 12:55:13 435.675
CUSAT 1 29 Nov 12:57:52 13:00:26 64° 101° (E) 13:03:17 437.405
ESTCUBE 1 29 Nov 12:58:26 13:02:28 32° 297° (WNW) 13:06:29 437.505/2401.250
Gurwin Techsat 1B 29 Nov 13:00:26 13:05:09 33° 61° (ENE) 13:09:52 435.225
O/OREOS (USA 219) 29 Nov 13:01:55 13:05:01 18° 38° (NE) 13:08:07 437.305
CUBEBUG 1 29 Nov 13:13:21 13:16:53 24° 300° (WNW) 13:20:23 437.445
AISAT 29 Nov 13:16:14 13:18:09 13° 309° (NW) 13:20:04 437.250
ITUPSAT 1 29 Nov 13:20:26 13:24:39 29° 94° (E) 13:28:49 437.325
SWISSCUBE 29 Nov 13:29:40 13:34:09 37° 97° (E) 13:38:36 437.505
AUBIESAT-1 29 Nov 13:35:46 13:40:15 34° 101° (E) 13:44:38 437.475
DANDE 29 Nov 13:41:24 13:43:51 36° 289° (WNW) 13:46:29 436.750
M-CUBED/EXP-1 PRIME 29 Nov 13:43:41 13:48:25 42° 103° (ESE) 13:53:01 437.505
ITAMSAT 1 29 Nov 13:44:28 13:49:42 79° 255° (WSW) 13:54:57 435.822/435.867
JAS-2 29 Nov 13:44:34 13:48:26 15° 37° (NE) 13:52:14 435.910
HORYU 2 29 Nov 13:47:11 13:51:10 34° 64° (ENE) 13:55:11 437.375
TISAT 1 29 Nov 13:59:15 14:02:48 27° 298° (WNW) 14:06:19 437.305
BEESAT 29 Nov 13:59:45 14:04:32 62° 102° (ESE) 14:09:17 436.000
AO-7 29 Nov 14:11:45 14:19:31 46° 54° (NE) 14:27:20 29.400- 29.500
STARS 29 Nov 14:11:55 14:14:37 16° 88° (E) 14:17:17 437.465
SPROUT 29 Nov 14:21:45 14:24:54 20° 301° (WNW) 14:28:01 437.525
Oscar 19 29 Nov 14:24:12 14:27:51 19° 271° (W) 14:31:32 437.125/150
YUBILEINY 29 Nov 14:28:02 14:36:22 52° 271° (W) 14:44:38 435.215
MaSat-1 29 Nov 14:29:02 14:31:16 23° 116° (ESE) 14:33:23 437.345
Gurwin Techsat 1B 29 Nov 14:39:50 14:44:59 49° 261° (W) 14:50:09 435.225
O/OREOS (USA 219) 29 Nov 14:40:41 14:45:11 80° 60° (ENE) 14:49:40 437.305
RS-15 29 Nov 14:41:18 14:49:53 28° 104° (ESE) 14:58:28 29.354- 29.394
ITUPSAT 1 29 Nov 14:58:07 15:02:45 46° 294° (WNW) 15:07:19 437.325
KKS-1 29 Nov 14:59:50 15:04:14 57° 101° (ESE) 15:08:36 437.445
SWISSCUBE 29 Nov 15:07:38 15:12:02 37° 296° (WNW) 15:16:25 437.505
AUBIESAT-1 29 Nov 15:10:38 15:15:20 45° 300° (WNW) 15:19:56 437.475
VERMONT LUNAR 29 Nov 15:11:28 15:12:47 12° 176° (S) 15:14:07 437.305
PHONESAT 2.4 29 Nov 15:16:54 15:18:17 12° 173° (S) 15:19:39 2401.200-2431.200
M-CUBED/EXP-1 PRIME 29 Nov 15:18:50 15:23:23 38° 303° (WNW) 15:27:52 437.505
Cubesat XI-IV 29 Nov 15:19:35 15:21:05 11° 43° (NE) 15:22:36 437.490
HORYU 2 29 Nov 15:23:44 15:27:50 36° 263° (W) 15:31:59 437.375
JAS-2 29 Nov 15:24:26 15:31:37 41° 59° (ENE) 15:38:41 435.910
ITAMSAT 1 29 Nov 15:27:18 15:30:04 14° 275° (W) 15:32:50 435.822/435.867
BEESAT 29 Nov 15:38:13 15:42:02 24° 302° (WNW) 15:45:50 436.000
STARS 29 Nov 15:47:15 15:51:39 76° 288° (WNW) 15:56:03 437.465
CUTE-I 29 Nov 15:57:06 16:00:45 19° 52° (NE) 16:04:24 437.470
MaSat-1 29 Nov 16:03:27 16:05:38 22° 313° (NW) 16:07:42 437.345
AO-7 29 Nov 16:04:01 16:12:11 59° 257° (WSW) 16:20:26 29.400- 29.500
O/OREOS (USA 219) 29 Nov 16:21:16 16:24:00 16° 260° (W) 16:26:44 437.305
GONETS M04 29 Nov 16:25:34 16:31:00 17° 41° (NE) 16:36:24
YUBILEINY 29 Nov 16:27:40 16:30:58 13° 295° (WNW) 16:34:17 435.215
MOZHAYETS 4 29 Nov 16:33:14 16:36:53 22° 90° (E) 16:40:29
KKS-1 29 Nov 16:37:05 16:40:35 23° 301° (WNW) 16:44:04 437.445
ITUPSAT 1 29 Nov 16:39:01 16:39:33 10° 314° (NW) 16:40:04 437.325
AUBIESAT-1 29 Nov 16:47:25 16:49:15 12° 320° (NW) 16:51:05 437.475
RS-15 29 Nov 16:49:41 17:00:36 82° 129° (SE) 17:11:40 29.354- 29.394
Cubesat XI-IV 29 Nov 16:54:53 16:59:58 45° 64° (ENE) 17:05:03 437.490
PHONESAT 2.4 29 Nov 16:55:03 16:56:04 11° 191° (S) 16:57:04 2401.200-2431.200
M-CUBED/EXP-1 PRIME 29 Nov 16:56:26 16:57:13 10° 323° (NW) 16:58:01 437.505
JAS-2 29 Nov 17:08:35 17:16:20 64° 259° (W) 17:24:04 435.910
STARS 29 Nov 17:25:14 17:27:27 14° 307° (NW) 17:29:40 437.465
CUTE-I 29 Nov 17:34:45 17:40:08 84° 72° (ENE) 17:45:31 437.470
PRISM 29 Nov 17:53:25 17:56:52 24° 93° (E) 18:00:17 437.425
HO-68 29 Nov 18:00:22 18:05:30 22° 43° (NE) 18:10:38 435.675
AO-7 29 Nov 18:02:42 18:06:55 15° 280° (W) 18:11:09 29.400- 29.500
MOZHAYETS 4 29 Nov 18:09:53 18:14:29 59° 290° (WNW) 18:19:04
GONETS M04 29 Nov 18:21:48 18:30:27 53° 69° (ENE) 18:38:58
CUBESAT XI-V 29 Nov 18:26:10 18:29:57 24° 91° (E) 18:33:42 437.345
CUTE 1.7 + AOD 2 29 Nov 18:29:59 18:30:26 10° 50° (NE) 18:30:53 437.475
Cubesat XI-IV 29 Nov 18:35:17 18:40:11 36° 264° (W) 18:45:07 437.490
GOMX 1 29 Nov 18:42:51 18:43:46 11° 52° (NE) 18:44:39 467.674
PCSat 29 Nov 18:47:04 18:51:44 30° 113° (ESE) 18:56:25 145.827
SEEDS 29 Nov 18:55:29 18:57:51 15° 55° (NE) 19:00:13 437.485
STRAND 1 29 Nov 18:57:11 19:02:00 39° 97° (E) 19:06:46 437.568
JAS-2 29 Nov 18:58:06 19:02:50 17° 281° (W) 19:07:33 435.910
RS-15 29 Nov 19:03:21 19:13:58 52° 339° (NNW) 19:24:50 29.354- 29.394
AAUSAT CUBESAT 2 29 Nov 19:04:03 19:06:12 14° 55° (NE) 19:08:22 437.432
UKube-1 29 Nov 19:12:46 19:13:28 10° 49° (NE) 19:14:10 .
AIST 2 29 Nov 19:15:06 19:17:08 13° 111° (ESE) 19:19:10 435.215
CUTE-I 29 Nov 19:17:13 19:20:54 19° 272° (W) 19:24:35 437.470
DOVE 4 29 Nov 19:17:32 19:20:07 16° 57° (ENE) 19:22:38 437.250
AIST 1 29 Nov 19:17:46 19:22:00 48° 94° (E) 19:26:17
Oscar 11 29 Nov 19:19:43 19:21:25 12° 52° (NE) 19:23:07 145.826/435.025
COMPASS 1 29 Nov 19:21:08 19:24:15 21° 59° (ENE) 19:27:23 437.405
CINEMA 3 29 Nov 19:23:45 19:25:16 12° 53° (NE) 19:26:47 145.822/145.860
CANX-2 29 Nov 19:27:47 19:31:31 31° 64° (ENE) 19:35:16 2200.000
PRISM 29 Nov 19:28:34 19:32:40 47° 292° (WNW) 19:36:43 437.425
BRITE-PL 29 Nov 19:28:57 19:33:04 32° 65° (ENE) 19:36:57 437.365/2234.400
BEESAT 3 29 Nov 19:38:52 19:42:42 38° 123° (ESE) 19:46:35 437.485
HO-68 29 Nov 19:44:58 19:52:05 68° 65° (ENE) 19:59:14 435.675
MOZHAYETS 4 29 Nov 19:49:06 19:50:49 12° 310° (NW) 19:52:31
DX 1 29 Nov 19:49:38 19:52:51 20° 57° (ENE) 19:56:04 434.975-435.025
UWE-3 29 Nov 19:57:33 19:59:42 14° 55° (NE) 20:01:50 435.000/436.395/437.385
BEESAT 2 29 Nov 19:57:37 20:01:37 49° 126° (SE) 20:05:42 435.950
CUTE 1.7 + AOD 2 29 Nov 20:01:21 20:05:29 57° 70° (ENE) 20:09:41 437.475
CUBESAT XI-V 29 Nov 20:03:09 20:07:43 54° 291° (WNW) 20:12:14 437.345
CUBEBUG 2 29 Nov 20:05:23 20:08:12 18° 58° (ENE) 20:11:00 437.445
GOMX 1 29 Nov 20:16:41 20:21:08 60° 71° (ENE) 20:25:22 467.674
GONETS M04 29 Nov 20:18:57 20:27:16 48° 273° (W) 20:35:31
DELFI C3 29 Nov 20:21:29 20:25:04 30° 64° (ENE) 20:28:41 145.870
ZACube-1 29 Nov 20:22:07 20:25:06 19° 59° (ENE) 20:28:04 437.345
SEEDS 29 Nov 20:28:52 20:33:05 90° 79° (E) 20:37:21 437.485
PCSat 29 Nov 20:29:27 20:34:51 64° 314° (NW) 20:40:16 145.827
50 SAT 29 Nov 20:30:26 20:32:19 13° 55° (NE) 20:34:13 437.505
STRAND 1 29 Nov 20:36:30 20:41:13 38° 297° (WNW) 20:45:54 437.568
AAUSAT CUBESAT 2 29 Nov 20:37:05 20:41:15 85° 74° (ENE) 20:45:29 437.432
VELOX 1 29 Nov 20:37:56 20:41:16 21° 58° (ENE) 20:44:36 145.980
UKube-1 29 Nov 20:44:29 20:48:44 54° 69° (ENE) 20:53:00 .
AIST 2 29 Nov 20:50:47 20:55:03 76° 131° (SE) 20:59:23 435.215
Oscar 11 29 Nov 20:52:32 20:56:48 68° 72° (ENE) 21:01:08 145.826/435.025
ESTCUBE 1 29 Nov 20:52:55 20:55:19 14° 52° (NE) 20:57:44 437.505/2401.250
DOVE 4 29 Nov 20:53:00 20:57:25 84° 256° (WSW) 21:01:40 437.250
FUNcube-1 29 Nov 20:54:56 20:58:43 35° 66° (ENE) 21:02:30 145.935
COMPASS 1 29 Nov 20:55:31 20:59:38 59° 259° (W) 21:03:49 437.405
AIST 1 29 Nov 20:56:20 20:59:57 24° 295° (WNW) 21:03:35
CINEMA 3 29 Nov 20:57:33 21:01:47 71° 73° (ENE) 21:05:58 145.822/145.860
CANX-2 29 Nov 21:03:31 21:07:25 36° 264° (W) 21:11:22 2200.000
CUBEBUG 1 29 Nov 21:04:32 21:07:14 16° 55° (NE) 21:09:56 437.445
AISAT 29 Nov 21:05:58 21:10:00 34° 64° (ENE) 21:14:02 437.250
BRITE-PL 29 Nov 21:07:08 21:11:34 39° 262° (W) 21:15:44 437.365/2234.400
HUMSAT D 29 Nov 21:08:29 21:12:07 31° 65° (ENE) 21:15:46 437.325/437.525
BEESAT 3 29 Nov 21:16:56 21:20:55 43° 324° (NW) 21:24:57 437.485
RS-15 29 Nov 21:18:24 21:28:56 47° 12° (NNE) 21:39:49 29.354- 29.394
DX 1 29 Nov 21:24:21 21:28:42 66° 257° (WSW) 21:33:05 434.975-435.025
UWE-3 29 Nov 21:31:28 21:35:39 87° 74° (ENE) 21:39:50 435.000/436.395/437.385
HO-68 29 Nov 21:34:01 21:40:20 33° 267° (W) 21:46:42 435.675
BEESAT 2 29 Nov 21:36:12 21:40:04 36° 327° (NNW) 21:44:00 435.950
CUTE 1.7 + AOD 2 29 Nov 21:38:42 21:41:48 20° 270° (W) 21:44:55 437.475
CUBEBUG 2 29 Nov 21:40:19 21:44:30 69° 257° (WSW) 21:48:40 437.445
CUBESAT XI-V 29 Nov 21:42:57 21:44:11 11° 311° (NW) 21:45:26 437.345
CUSAT 1 29 Nov 21:45:47 21:48:57 18° 63° (ENE) 21:52:42 437.405
TISAT 1 29 Nov 21:48:45 21:50:35 13° 53° (NE) 21:52:25 437.305
GOMX 1 29 Nov 21:56:22 21:59:39 19° 269° (W) 22:02:49 467.674
DELFI C3 29 Nov 21:56:34 22:00:19 35° 264° (W) 22:04:08 145.870
ZACube-1 29 Nov 21:56:59 22:01:07 62° 258° (WSW) 22:05:16 437.345
50 SAT 29 Nov 22:02:59 22:07:01 84° 74° (ENE) 22:11:04 437.505
ANTELSAT 29 Nov 22:03:57 22:06:53 17° 89° (E) 22:09:52 437.575/2403.000
SEEDS 29 Nov 22:07:47 22:09:36 12° 274° (W) 22:11:25 437.485
QB50P1 29 Nov 22:08:06 22:09:47 12° 86° (E) 22:11:27 145.935-145.965
SPROUT 29 Nov 22:10:58 22:13:46 17° 57° (ENE) 22:16:34 437.525
VELOX 1 29 Nov 22:13:02 22:17:28 65° 257° (WSW) 22:21:56 145.980
PCSat 29 Nov 22:14:54 22:19:17 24° 338° (NNW) 22:23:41 145.827
AAUSAT CUBESAT 2 29 Nov 22:15:34 22:17:34 13° 274° (W) 22:19:35 437.432
GONETS M04 29 Nov 22:19:15 22:21:42 11° 297° (WNW) 22:24:10
UKube-1 29 Nov 22:21:51 22:25:13 22° 268° (W) 22:28:37 .
MaSat-1 29 Nov 22:26:34 22:28:27 21° 47° (NE) 22:30:21 437.345
ESTCUBE 1 29 Nov 22:26:55 22:31:29 75° 72° (ENE) 22:36:04 437.505/2401.250
DANDE 29 Nov 22:30:17 22:34:15 30° 69° (ENE) 22:39:20 436.750
AIST 2 29 Nov 22:30:21 22:34:07 29° 332° (NNW) 22:37:55 435.215
Oscar 11 29 Nov 22:30:36 22:33:28 17° 271° (W) 22:36:20 145.826/435.025
FUNcube-1 29 Nov 22:31:28 22:35:09 30° 265° (W) 22:38:51 145.935
POPSAT HIP 1 29 Nov 22:32:23 22:35:33 20° 91° (E) 22:38:42 437.405
DOVE 4 29 Nov 22:34:24 22:35:53 12° 274° (W) 22:37:21 437.250
CINEMA 3 29 Nov 22:36:58 22:39:31 15° 271° (W) 22:42:03 145.822/145.860
CUBEBUG 1 29 Nov 22:38:35 22:43:02 89° 260° (W) 22:47:29 437.445
AISAT 29 Nov 22:42:31 22:46:39 36° 263° (W) 22:50:46 437.250
HUMSAT D 29 Nov 22:44:09 22:47:55 34° 264° (W) 22:51:42 437.325/437.525
TIGRISAT 29 Nov 22:54:20 22:58:36 44° 99° (E) 23:02:57 435.000
BEESAT 3 29 Nov 22:57:10 23:00:08 18° 346° (NNW) 23:03:07 437.485
AUBIESAT-1 29 Nov 22:57:18 23:00:38 21° 49° (NE) 23:04:07 437.475
ITUPSAT 1 29 Nov 22:58:29 23:00:51 14° 50° (NE) 23:03:13 437.325
ISS 29 Nov 22:59:22 23:02:05 24° 150° (SSE) 23:04:49 145.825
M-CUBED/EXP-1 PRIME 29 Nov 23:05:16 23:08:53 25° 51° (NE) 23:12:42 437.505
SWISSCUBE 29 Nov 23:06:53 23:09:52 17° 53° (NE) 23:12:52 437.505
POLYITAN 1 29 Nov 23:08:06 23:12:09 42° 99° (E) 23:16:11 437.675
QB50P2 29 Nov 23:08:20 23:12:24 43° 99° (E) 23:16:26 145.880/145.840
UNISAT 6 29 Nov 23:10:24 23:14:50 63° 102° (ESE) 23:19:21 437.425
UWE-3 29 Nov 23:11:03 23:12:51 13° 274° (W) 23:14:40 435.000/436.395/437.385
DUCHIFAT 1 29 Nov 23:11:26 23:15:31 45° 99° (E) 23:19:33 145.980
BEESAT 2 29 Nov 23:16:36 23:19:28 17° 350° (N) 23:22:21 435.950
TISAT 1 29 Nov 23:21:28 23:25:43 73° 72° (ENE) 23:29:58 437.305
CUSAT 1 29 Nov 23:27:47 23:32:25 87° 258° (WSW) 23:38:43 437.405
BUGSAT 1 29 Nov 23:29:50 23:33:53 56° 101° (E) 23:37:52 437.445
NANOSAT C BR1 29 Nov 23:31:33 23:35:47 70° 103° (ESE) 23:40:00 145.865
BEESAT 29 Nov 23:35:51 23:39:42 25° 58° (ENE) 23:43:35 436.000
ANTELSAT 29 Nov 23:39:44 23:44:12 73° 288° (WNW) 23:48:45 437.575/2403.000
50 SAT 29 Nov 23:41:13 23:42:56 12° 273° (W) 23:44:39 437.505
